Regional Weather Roundup
Issued by NWS Wakefield, VA

Home | Current Version | Previous Version | Graphics & Text | Print | Product List | Glossary On
Versions: 1 2 3 4 5 6 7 8 9 10 11 12 13 14 15 16 17 18 19 20 21 22 23 24 25 26 27
000
ASUS41 KAKQ 282215
RWRAKQ

REGIONAL WEATHER ROUNDUP
NATIONAL WEATHER SERVICE WAKEFIELD VA
600 PM EDT SUN AUG 28 2016

Note: "fair" indicates few or no clouds below 12,000 feet with no
significant weather and/or obstructions to visibility. * = Denotes
station may not report precipitation (e.g., rain,snow,etc.),
thunder or fog.

VAZ042-051-052>054-056-282300-
NORTHERN VIRGINIA

CITY           SKY/WX    TMP DP  RH WIND       PRES   REMARKS
WASH NATIONAL  MOSUNNY   87  65  47 E8        30.16S
DULLES         MOSUNNY   88  58  36 SE10      30.15F
FORT BELVOIR   SUNNY     86  64  47 VRB5      30.15F
QUANTICO       NOT AVBL
FREDERICKSBRG*   N/A     87  66  49 E7        30.14S
STAFFORD*      SUNNY     86  62  43 SE6       30.19F
WARRENTON      SUNNY     88  59  37 E7        30.15F
CULPEPER*      SUNNY     88  68  51 E3        30.15F
MANASSAS*      SUNNY     88  66  48 SE8       30.15F
LEESBURG*      SUNNY     90  64  43 E6        30.16S
WINCHESTER     SUNNY     88  63  42 SE7       30.16F
FRONT ROYAL*   FAIR      86  68  54 SE7       30.15F
LURAY*         FAIR      88  68  51 E7        30.16S
$$

VAZ048-049-060>072-079>083-282300-
CENTRAL AND SOUTH CENTRAL VIRGINIA

CITY           SKY/WX    TMP DP  RH WIND       PRES   REMARKS
RICHMOND       PTSUNNY   86  62  44 NE9       30.14S
CHESTERFIELD*  FAIR      88  57  35 E8        30.16S
PETERSBURG*    PTSUNNY   88  65  46 NE7       30.14S
HANOVER        SUNNY     85  65  51 CALM      30.16F
TAPPAHANNOCK*  SUNNY     87  63  44 E6        30.16S
QUINTON*       FAIR      87  66  50 NE5       30.14S
CHARLOTTSVILLE SUNNY     90  60  36 SE7       30.15F
GORDONSVILLE*  FAIR      84  70  61 CALM      30.15F
ORANGE*          N/A     86  64  48 CALM      30.17F
LOUISA*        SUNNY     88  72  58 E3        30.15F
BUMPASS*       FAIR      85  69  56 CALM      30.15F
FARMVILLE*     SUNNY     87  65  47 N6        30.13F
CREWE*         FAIR      89  64  42 E6        30.14S
FORT PICKETT*  NOT AVBL
CHASE CITY*    FAIR      89  58  35 E3        30.13F
CLARKSVILLE*   FAIR      90  63  40 E6        30.12F
SOUTH HILL*    CLOUDY    85  68  56 NE3       30.19S
LAWRENCEVILLE* FAIR      86  67  53 NE5       30.13S
EMPORIA*       CLOUDY    86  66  51 N3        30.14S
$$

VAZ088>098-282300-
SOUTHEAST VIRGINIA

CITY           SKY/WX    TMP DP  RH WIND       PRES   REMARKS
NORFOLK        PTSUNNY   80  71  74 NE17      30.13F
VIRGINIA BEACH CLOUDY    84  70  62 E9        30.13F
NORFOLK NAVAL  PTSUNNY   81  71  71 E10       30.15F
WEST POINT*    MOSUNNY   85  65  51 E8        30.16S
SALUDA*        FAIR      83  70  63 NE8       30.15S
NEWPORT NEWS   CLOUDY    82  70  66 E12       30.14F
LANGLEY AFB    CLOUDY    81  71  71 E15       30.13F
FORT EUSTIS    CLOUDY    85  70  60 E9        30.12S
WILLIAMSBURG*  CLOUDY    90  70  51 CALM      30.15S HX  95
HR EXEC AP*    FAIR      81  70  69 E10       30.16S
FRANKLIN*      CLOUDY    82  70  67 E9        30.14S
US460-WAKEFLD  CLOUDY    83  69  62 VRB5      30.13S
$$

VAZ020-022-025-037-045-282300-
WEST CENTRAL AND SOUTHWEST VIRGINIA

CITY           SKY/WX    TMP DP  RH WIND       PRES   REMARKS
STAUNTON*      SUNNY     85  63  46 S7        30.20S
WAYNESBORO*    FAIR      84  59  42 SE7       30.20F
HOT SPRINGS VA SUNNY     79  64  60 CALM      30.32F
LYNCHBURG      SUNNY     86  64  47 E8        30.17F
DANVILLE       SUNNY     88  65  46 NE8       30.14S
SOUTH BOSTON*  FAIR      90  61  38 E5        30.12F
MARTINSVILLE   SUNNY     87  65  48 E3        30.18S
ROANOKE        MOSUNNY   88  58  36 SE12      30.18F
BLACKSBURG     SUNNY     84  63  48 E8        30.25S
DUBLIN*        SUNNY     85  61  43 E8        30.23F
MARION*        PTSUNNY   83  65  53 E9        30.25F
HILLSVILLE*    SUNNY     80  66  61 SE5       30.24F
RICHLANDS*     FAIR      83  68  61 E5        30.23S
WISE*          SUNNY     82  61  47 NE7       30.23F
ABINGDON*      SUNNY     89  61  39 E17       30.17F
$$

MDZ021>025-VAZ099-100-282300-
SOUTHERN MARYLAND AND THE DELMARVA PENINSULA

CITY           SKY/WX    TMP DP  RH WIND       PRES   REMARKS
PATUXENT RIVER MOSUNNY   84  64  50 E6        30.15F
BAY BRIDGE APT SUNNY     84  72  65 N7        30.16S
LEONARDTOWN    SUNNY     82  63  51 E3        30.17S
DOVER          NOT AVBL
GEORGETOWN     NOT AVBL
EASTON         MOSUNNY   86  70  58 E6        30.19S
CAMBRIDGE      SUNNY     82  61  47 E6        30.16S
SALISBURY      SUNNY     82  63  52 E8        30.16S
OCEAN CITY     SUNNY     80  69  69 E10       30.16F
WALLOPS ISLAND SUNNY     81  58  45 NE12      30.16F
ACCOMACK*      SUNNY     81  65  59 E12       30.16S
$$

NCZ012>017-030>032-282300-
NORTH CENTRAL AND EASTERN NORTH CAROLINA

CITY           SKY/WX    TMP DP  RH WIND       PRES   REMARKS
ROANOKE RAPIDS FAIR      82  68  61 N3        30.12S
RALEIGH        CLOUDY    88  64  44 NE8       30.12F
ELIZABETH CITY CLOUDY    81  74  79 NE17      30.12S
AHOSKIE*       CLOUDY    81  68  65 NE3       30.13R
EDENTON*       CLOUDY    83  73  70 NE5       30.12S
CURRITUCK*       N/A     80  74  80 NE12G17   30.13S
KILL DEVIL HLS CLOUDY    82  79  92 NE7       30.09S
MANTEO         CLOUDY    80  78  94 NE13      30.11S
CAPE HATTERAS  PTSUNNY   84  75  74 NE6       30.08S
TARBORO*       CLOUDY    83  76  80 CALM      30.12S
GOLDSBORO      LGT RAIN  77  77 100 CALM      30.09F
WASHINGTON     LGT RAIN  75  74  95 E5        30.11F
GREENVILLE     LGT RAIN  79  77  94 SE9       30.13R
NEW BERN       MOSUNNY   79  76  90 N6        30.10F
WILMINGTON     CLOUDY    79  74  84 N7        30.07F
$$

VAZ048-282300-
ELSEWHERE

CITY           SKY/WX    TMP DP  RH WIND       PRES   REMARKS
HARRISBURG PA  MOSUNNY   88  67  49 SE9       30.14F
BALTIMORE      MOSUNNY   86  64  47 SE10      30.16S
ANNAPOLIS      SUNNY     86  68  54 NE6       30.15F
ANDREWS AFB    SUNNY     84  65  52 E7        30.16F
PHILADELPHIA   MOSUNNY   89  64  43 W8        30.16S
HENDERSON NC   CLOUDY    84  64  51 NE6       30.13S
GREENSBORO     PTSUNNY   86  60  41 E13       30.14S
ROCKY MOUNT    CLOUDY    84  74  71 E3        30.11F
$$

VAZ100-282300-
MARINE

STATION/POSITION TIME  TEMP    WIND        PRES    WAVE   SWELL
                       AIR SEA DIR/SP/G            HT/PER HT/PER
                 (UTC) (F)     (DEG/KT/KT) (MB)    (FT/S) (FT/S)
BRANDYWINE LGT   2100   78     130/  9/ 10   N/A
CAPE MAY NJ      2100   81 77   80/  7/ 11 1021.4F
LEWES DE         2100   77 78   70/  9/ 10 1021.8F
OCEAN-CITY-INLET 2100   79 76   80/  8/ 12 1022.2F
WACHAPREAGUE VA  2100   80 84   50/ 13/ 17 1021.1F
THOMAS POINT MD  2200   83 84   10/  7/  8 1022.5F
GOOSES REEF MD   2200   85 83   20/  8/ 10 1021.5F   1
COVE POINT MD    2100   81     360/  7/  9 1021.8F
SOLOMONS ISLAND  2100   83 85  110/  4/  5   N/A
PINEY POINT MD   2100          110/  8/  9   N/A
POTOMAC MD       2200   84 84   90/  4/ 10 1019.8F   0
CAMBRIDGE MD     2100   85 83   70/  8/ 10 1020.6F
LEWISETTA VA     2100   83 84   80/  6/  9 1020.8F
RAPPAHANNOCK LGT 2100           60/  9/ 11 1021.6F
STINGRAY PT      2200   83 84   30/ 10/ 12 1021.1F   1/ 2
YORK RVR RNG VA  2100   82      80/ 11/ 13 1020.4F
YORKTOWN VA      2100   82 84   70/ 12/ 13 1020.5F
JAMESTOWN VA     2200   84 86   60/  6/ 12   N/A     1
DOMINION TERM VA 2100   81      70/ 13/ 17 1020.8F
KIPTOPEKE VA     2100      82   50/ 10/ 15   N/A
CHES BAY BRIDGE  2100   79 78   50/ 15/ 17 1020.6S
CAPE HENRY VA    2100   79      40/ 14/ 17   N/A
WILLOUBY STN VA  2100   80      70/ 13/ 14   N/A
CAPE HENRY BUOY  2112      80                N/A     4/ 5
1ST LANDING BUOY 2200   79 76   70/ 10/ 14 1020.2F   2/ 3
CAPE CHARLES BUO 2126      80                N/A     4/ 6
OFFSHORE WE BUOY 2121      81                N/A     4/ 5
64NM E OF VA BCH 2150   80 81   40/ 17/ 19 1018.7F   5/ 8   2/ 8
DUCK PIER NC     2100   80 77   40/ 19/ 21 1019.0F
44100 DUCK FRF   2105      80                N/A     4/ 5
44056 DUCK FRF   2111      79                N/A     4/ 6
OREGON INLET NC  2100   81 79   30/ 13/ 17 1019.0F
HATTERAS NC      2100   83 82   50/  5/ 10 1018.3F
DIAMOND SHLS NC  2150   83 85   60/  8/ 10 1018.2S   3/15   3/15
CAPE LOOKOUT NC  2200   82      40/ 10/ 11 1018.2F
$$




USA.gov is the U.S. government's official web portal to all federal, state and local government web resources and services.